Date String (YYYY-MM-DD hh:mm:ss) UTC,Instrument flags,Ambient pressure (hPa),Sample flow (lpm),Bypass flow (lpm),Sample temperature (°C),Ambient temperature (°C),ASC tube jacket temperature (°C),LED temperature (°C),Box temperature (°C),Sample RH (%),Span deviation,Mass concentration (μg/m³),Mass concentration (μg/m³),Mass concentration (μg/m³)
DateTimeUTC,F1_M11,P_M11,Q1_M11,Q2_M11,T1_M11,T2_M11,T3_M11,T4_M11,T5_M11,U1_M11,ZSPAN_M11,X0_M11,X2_M11,X1_M11
2022-06-30 19:00:00,,0830.1,5.01,0.00,29.5,28.5,00.0,38.2,31.5,24.4,0000.0,0002.02,0001.26,0000.97
2022-06-30 19:01:00,,0830.1,5.00,0.00,29.5,28.5,00.0,38.2,31.5,24.7,0000.0,0002.07,0001.26,0000.96
2022-06-30 19:02:00,,0830.1,4.99,0.00,29.5,28.0,00.0,38.2,31.4,24.3,0000.0,0002.08,0001.26,0000.96
2022-06-30 19:03:00,,0830.1,5.00,0.00,29.5,27.3,00.0,38.1,31.3,24.4,0000.0,0001.89,0001.21,0000.96
2022-06-30 19:04:00,,0830.1,5.00,0.00,29.4,27.1,00.0,38.1,31.2,24.8,0000.0,0001.75,0001.17,0000.95
2022-06-30 19:05:00,,0830.1,5.01,0.00,29.4,27.1,00.0,38.1,31.2,25.3,0000.0,0001.77,0001.17,0000.94
2022-06-30 19:06:00,,0830.1,5.00,0.00,29.3,27.2,00.0,38.1,31.1,26.5,0000.0,0001.75,0001.15,0000.94
2022-06-30 19:07:00,,0830.1,5.00,0.00,29.3,27.4,00.0,38.1,31.1,26.2,0000.0,0001.80,0001.16,0000.94
2022-06-30 19:08:00,,0830.1,5.01,0.00,29.3,27.5,00.0,38.1,31.2,25.5,0000.0,0001.83,0001.18,0000.94
2022-06-30 19:09:00,,0830.1,5.00,0.00,29.3,27.7,00.0,38.1,31.2,26.7,0000.0,0001.90,0001.22,0000.96
2022-06-30 19:10:00,,0830.1,4.99,0.00,29.3,27.9,00.0,38.1,31.2,25.6,0000.0,0001.91,0001.22,0000.97
2022-06-30 19:11:00,,0830.0,5.00,0.00,29.3,28.0,00.0,38.1,31.3,25.5,0000.0,0001.97,0001.25,0000.98
2022-06-30 19:12:00,,0830.1,5.00,0.00,29.4,28.1,00.0,38.1,31.3,25.1,0000.0,0001.88,0001.23,0000.98
2022-06-30 19:13:00,,0830.0,5.00,0.00,29.4,28.3,00.0,38.1,31.4,24.8,0000.0,0001.83,0001.20,0000.97
2022-06-30 19:14:00,,0829.9,5.00,0.00,29.4,28.4,00.0,38.1,31.4,24.9,0000.0,0002.42,0001.20,0000.97
2022-06-30 19:15:00,,0829.9,5.00,0.00,29.5,28.5,00.0,38.2,31.4,25.2,0000.0,0003.07,0001.23,0000.99
2022-06-30 19:16:00,,0829.9,5.00,0.00,29.5,28.5,00.0,38.2,31.5,24.9,0000.0,0003.12,0001.28,0000.99
2022-06-30 19:17:00,,0829.9,5.00,0.00,29.5,28.3,00.0,38.2,31.5,24.5,0000.0,0003.09,0001.28,0001.00
2022-06-30 19:18:00,,0829.8,4.99,0.00,29.5,27.6,00.0,38.1,31.4,24.9,0000.0,0003.07,0001.29,0001.01
2022-06-30 19:19:00,,0829.8,5.00,0.00,29.4,27.1,00.0,38.1,31.2,24.3,0000.0,0003.07,0001.29,0001.01
2022-06-30 19:20:00,,0829.8,5.00,0.00,29.4,27.1,00.0,38.1,31.2,23.9,0000.0,0002.98,0001.26,0001.00
2022-06-30 19:21:00,,0829.8,5.00,0.00,29.3,27.1,00.0,38.1,31.1,23.4,0000.0,0003.04,0001.27,0000.98
2022-06-30 19:22:00,,0829.8,4.99,0.00,29.3,27.3,00.0,38.1,31.1,23.5,0000.0,0003.00,0001.25,0000.97
2022-06-30 19:23:00,,0829.8,4.98,0.00,29.3,27.5,00.0,38.1,31.1,23.3,0000.0,0003.01,0001.26,0000.96
2022-06-30 19:24:00,,0829.7,4.99,0.00,29.3,27.6,00.0,38.1,31.2,22.9,0000.0,0003.02,0001.25,0000.94
2022-06-30 19:25:00,,0829.7,5.00,0.00,29.3,27.8,00.0,38.1,31.2,23.5,0000.0,0002.50,0001.28,0000.93
2022-06-30 19:26:00,,0829.6,4.99,0.00,29.3,28.0,00.0,38.1,31.3,23.8,0000.0,0001.97,0001.32,0000.93
2022-06-30 19:27:00,,0829.7,5.01,0.00,29.4,28.1,00.0,38.1,31.3,23.9,0000.0,0001.91,0001.30,0000.94
2022-06-30 19:28:00,,0829.6,4.99,0.00,29.4,28.2,00.0,38.1,31.3,24.5,0000.0,0001.96,0001.33,0000.96
2022-06-30 19:29:00,,0829.6,5.00,0.00,29.4,28.3,00.0,38.1,31.4,24.7,0000.0,0002.02,0001.34,0000.97
2022-06-30 19:30:00,,0829.6,5.00,0.00,29.4,28.4,00.0,38.1,31.4,24.8,0000.0,0003.03,0001.45,0000.98
2022-06-30 19:31:00,,0829.8,5.00,0.00,29.5,28.5,00.0,38.2,31.5,24.3,0000.0,0003.10,0001.48,0001.00
2022-06-30 19:32:00,,0829.6,4.99,0.00,29.5,28.5,00.0,38.2,31.5,24.8,0000.0,0003.12,0001.50,0001.02
2022-06-30 19:33:00,,0829.6,5.00,0.00,29.5,28.0,00.0,38.2,31.4,25.2,0000.0,0003.18,0001.53,0001.05
2022-06-30 19:34:00,,0829.5,5.00,0.00,29.5,27.2,00.0,38.1,31.3,25.3,0000.0,0003.22,0001.54,0001.07
2022-06-30 19:35:00,,0829.5,5.00,0.00,29.4,27.0,00.0,38.1,31.2,24.9,0000.0,0003.25,0001.56,0001.08
2022-06-30 19:36:00,,0829.6,5.00,0.00,29.4,27.1,00.0,38.1,31.1,24.7,0000.0,0004.17,0001.60,0001.10
2022-06-30 19:37:00,,0829.5,4.99,0.00,29.3,27.2,00.0,38.1,31.1,25.1,0000.0,0004.98,0001.59,0001.09
2022-06-30 19:38:00,,0829.5,4.99,0.00,29.3,27.4,00.0,38.1,31.1,25.2,0000.0,0005.23,0001.61,0001.09
2022-06-30 19:39:00,,0829.5,5.00,0.00,29.3,27.6,00.0,38.1,31.2,24.8,0000.0,0005.24,0001.60,0001.09
2022-06-30 19:40:00,,0829.5,5.00,0.00,29.3,27.7,00.0,38.1,31.2,23.7,0000.0,0005.16,0001.58,0001.08
2022-06-30 19:41:00,,0829.5,4.99,0.00,29.3,27.9,00.0,38.1,31.3,23.9,0000.0,0004.19,0001.47,0001.07
2022-06-30 19:42:00,,0829.5,5.00,0.00,29.3,28.0,00.0,38.1,31.3,24.0,0000.0,0004.08,0001.47,0001.07
2022-06-30 19:43:00,,0829.5,5.02,0.00,29.4,28.2,00.0,38.1,31.3,23.7,0000.0,0004.03,0001.46,0001.07
2022-06-30 19:44:00,,0829.5,5.00,0.00,29.4,28.3,00.0,38.1,31.4,23.9,0000.0,0004.03,0001.46,0001.07
2022-06-30 19:45:00,,0829.5,5.00,0.00,29.4,28.4,00.0,38.1,31.4,24.0,0000.0,0004.04,0001.47,0001.08
2022-06-30 19:46:00,,0829.5,5.00,0.00,29.5,28.5,00.0,38.1,31.5,23.9,0000.0,0004.06,0001.49,0001.10
2022-06-30 19:47:00,,0829.5,4.99,0.00,29.5,28.6,00.0,38.2,31.5,24.2,0000.0,0003.68,0001.45,0001.10
2022-06-30 19:48:00,,0829.5,5.00,0.00,29.5,28.3,00.0,38.2,31.5,24.2,0000.0,0002.42,0001.44,0001.11
2022-06-30 19:49:00,,0829.4,4.98,0.00,29.5,27.6,00.0,38.1,31.4,23.9,0000.0,0002.24,0001.42,0001.12
2022-06-30 19:50:00,,0829.5,5.00,0.00,29.4,27.1,00.0,38.1,31.2,24.0,0000.0,0002.15,0001.42,0001.13
2022-06-30 19:51:00,,0829.5,5.00,0.00,29.4,27.1,00.0,38.1,31.2,23.9,0000.0,0002.16,0001.42,0001.13
2022-06-30 19:52:00,,0829.5,5.00,0.00,29.3,27.1,00.0,38.1,31.1,23.4,0000.0,0002.77,0001.42,0001.12
2022-06-30 19:53:00,,0829.6,5.00,0.00,29.3,27.3,00.0,38.1,31.1,23.7,0000.0,0002.69,0001.39,0001.11
2022-06-30 19:54:00,,0829.6,5.00,0.00,29.3,27.5,00.0,38.1,31.1,23.8,0000.0,0002.73,0001.39,0001.12
2022-06-30 19:55:00,,0829.5,5.00,0.00,29.3,27.6,00.0,38.1,31.2,24.2,0000.0,0002.75,0001.39,0001.12
2022-06-30 19:56:00,,0829.5,4.99,0.00,29.3,27.8,00.0,38.1,31.2,24.7,0000.0,0005.74,0001.64,0001.13
2022-06-30 19:57:00,,0829.5,5.01,0.00,29.3,27.9,00.0,38.1,31.3,24.7,0000.0,0008.11,0001.83,0001.15
2022-06-30 19:58:00,,0829.5,5.00,0.00,29.3,28.1,00.0,38.1,31.3,24.6,0000.0,0008.25,0001.86,0001.15
2022-06-30 19:59:00,,0829.6,5.00,0.00,29.4,28.2,00.0,38.1,31.3,24.8,0000.0,0008.26,0001.86,0001.15
